EW6651 Weather Reports


time (UTC)temp
C
wind
direction
speed
KPH
gust
KPH
rain 1hr
cm
rain 24hr
cm
rain mn
cm
humidity
%
barometer
mb
20260507044559 8 316 0.0 0.0 0.00 0.41 0.00 95 1006.7
20260507043056 8 297 0.0 3.2 0.00 0.41 0.00 95 1006.4
20260507041552 9 302 1.6 4.8 0.00 0.41 0.00 95 1006.7
20260507040049 9 300 0.0 3.2 0.03 0.41 0.00 96 1006.7
20260507034548 10 305 0.0 1.6 0.03 0.41 0.41 96 1006.5
20260507033046 10 310 0.0 3.2 0.08 0.41 0.41 95 1006.3
20260507031541 11 326 0.0 4.8 0.08 0.41 0.41 95 1005.9
20260507030042 11 314 0.0 3.2 0.05 0.38 0.38 95 1005.9
20260507024536 12 40 1.6 6.4 0.05 0.38 0.38 96 1006.2
20260507023032 12 326 0.0 6.4 0.00 0.33 0.33 95 1006.1
20260507021530 13 318 0.0 6.4 0.05 0.33 0.33 95 1005.5
20260507020038 13 317 0.0 4.8 0.05 0.33 0.33 95 1005.4
20260507014525 14 340 0.0 4.8 0.05 0.33 0.33 96 1005.2
20260507013040 14 284 0.0 8.0 0.05 0.33 0.33 96 1004.8
20260507011524 15 276 3.2 12.9 0.00 0.28 0.28 95 1004.8
20260507010031 15 277 0.0 14.5 0.00 0.28 0.28 95 1004.8
20260507004523 14 220 1.6 9.7 0.00 0.28 0.28 96 1004.7
20260507003023 14 269 1.6 8.0 0.00 0.28 0.28 96 1004.3
20260507001528 14 235 0.0 9.7 0.00 0.28 0.28 96 1004.4
20260507000022 14 188 3.2 11.3 0.00 0.28 0.28 96 1004.3
20260506234528 14 238 3.2 9.7 0.00 0.28 0.28 96 1004.1
20260506233019 14 188 1.6 6.4 0.00 0.28 0.28 96 1004.1
20260506231517 14 129 1.6 9.7 0.00 0.28 0.28 96 1004.2
20260506230021 14 196 3.2 8.0 0.00 0.28 0.28 96 1004.2
20260506224517 14 218 1.6 6.4 0.00 0.28 0.28 96 1004.3
20260506223014 14 250 1.6 11.3 0.00 0.28 0.28 95 1004.4
20260506221513 15 202 4.8 11.3 0.00 0.28 0.28 95 1004.4
20260506220021 15 215 3.2 14.5 0.00 0.28 0.28 95 1004.5
20260506214512 15 204 3.2 11.3 0.03 0.28 0.28 95 1004.5
20260506213011 15 214 4.8 11.3 0.03 0.28 0.28 95 1004.4
20260506211516 15 161 4.8 14.5 0.05 0.28 0.28 95 1004.5
20260506210017 15 269 4.8 16.1 0.03 0.25 0.25 94 1004.5
20260506204509 15 141 3.2 19.3 0.08 0.25 0.25 94 1004.7
20260506203007 15 211 4.8 14.5 0.10 0.25 0.25 94 1004.7
20260506201507 15 151 1.6 16.1 0.08 0.23 0.23 94 1005.0
20260506200010 16 250 4.8 12.9 0.08 0.23 0.23 93 1005.0
20260506194503 16 190 6.4 12.9 0.03 0.18 0.18 92 1005.2
20260506193003 16 119 3.2 14.5 0.03 0.15 0.15 92 1005.4
20260506191502 16 217 3.2 12.9 0.03 0.15 0.15 91 1005.2
20260506190001 16 127 1.6 12.9 0.08 0.15 0.15 91 1005.0
20260506184617 16 213 3.2 11.3 0.13 0.15 0.15 90 1005.4
20260506183056 16 143 0.0 8.0 0.13 0.13 0.13 90 1005.8
20260506181554 16 261 1.6 6.4 0.13 0.13 0.13 89 1006.1
20260506180054 16 192 0.0 4.8 0.10 0.10 0.10 88 1006.1
20260506174551 17 232 0.0 4.8 0.03 0.03 0.03 83 1006.6
20260506173104 18 257 1.6 12.9 0.00 0.00 0.00 78 1006.5
20260506171554 18 203 4.8 12.9 0.00 0.00 0.00 72 1006.3
20260506170058 20 183 8.0 20.9 0.00 0.00 0.00 69 1006.3
20260506164608 20 189 6.4 27.4 0.00 0.00 0.00 67 1006.3
20260506163047 20 194 4.8 22.5 0.00 0.00 0.00 67 1006.4
20260506161548 20 243 1.6 22.5 0.00 0.00 0.00 67 1006.6
20260506160050 20 264 4.8 11.3 0.00 0.00 0.00 67 1006.7
20260506154550 20 248 1.6 8.0 0.00 0.00 0.00 72 1007.1
20260506153039 20 259 4.8 16.1 0.00 0.00 0.00 68 1007.2
20260506151539 20 286 3.2 20.9 0.00 0.00 0.00 70 1007.5
20260506150038 20 165 0.0 11.3 0.00 0.00 0.00 72 1007.6
20260506144537 19 262 3.2 11.3 0.00 0.00 0.00 72 1007.2
20260506143038 20 102 6.4 19.3 0.00 0.00 0.00 71 1007.5
20260506141539 19 136 6.4 14.5 0.00 0.00 0.00 73 1007.4
20260506140031 18 216 1.6 11.3 0.00 0.00 0.00 77 1007.3
20260506134527 18 111 3.2 8.0 0.00 0.00 0.00 77 1007.2
20260506133025 17 135 3.2 9.7 0.00 0.00 0.00 78 1007.7
20260506131523 17 184 3.2 6.4 0.00 0.00 0.00 79 1007.6
20260506130021 17 229 3.2 9.7 0.00 0.00 0.00 80 1007.8
20260506124619 16 273 1.6 9.7 0.00 0.00 0.00 81 1007.9
20260506123021 16 254 3.2 9.7 0.00 0.00 0.00 82 1007.9
20260506121518 15 168 0.0 4.8 0.00 0.00 0.00 83 1007.8
20260506120024 15 57 0.0 6.4 0.00 0.00 0.00 83 1008.1
20260506114517 15 205 0.0 4.8 0.00 0.00 0.00 85 1008.1
20260506113016 14 198 0.0 4.8 0.00 0.00 0.00 85 1008.2
20260506111515 14 197 1.6 6.4 0.00 0.00 0.00 85 1008.3
20260506110016 14 256 1.6 8.0 0.00 0.00 0.00 85 1008.2
20260506104513 13 211 0.0 4.8 0.00 0.00 0.00 86 1008.3
20260506103025 13 214 0.0 4.8 0.00 0.00 0.00 85 1008.3
20260506101512 13 200 0.0 8.0 0.00 0.00 0.00 84 1008.1
20260506100010 13 203 1.6 11.3 0.00 0.00 0.00 84 1008.2
20260506094520 13 178 3.2 11.3 0.00 0.00 0.00 83 1008.3
20260506093007 13 205 3.2 9.7 0.00 0.00 0.00 83 1008.1
20260506091506 13 144 1.6 4.8 0.00 0.00 0.00 82 1007.9
20260506090006 14 207 0.0 3.2 0.00 0.00 0.00 80 1008.0
20260506084505 14 225 0.0 4.8 0.00 0.00 0.00 80 1008.1
20260506083004 14 192 0.0 8.0 0.00 0.00 0.00 80 1008.2
20260506081505 13 138 0.0 4.8 0.00 0.00 0.00 81 1008.1
20260506073104 15 195 0.0 1.6 0.00 0.00 0.00 77 1008.1
20260506071555 15 215 0.0 1.6 0.00 0.00 0.00 75 1008.0
20260506070115 15 207 0.0 4.8 0.00 0.00 0.00 74 1007.9
20260506061651 15 213 0.0 1.6 0.00 0.00 0.00 74 1007.9